STARLINK-35448

Last updated on Tue Dec 16 2025 00:02:05 GMT+0000 (Coordinated Universal Time)

1 66465U 25262K 25349.00004630 .00022866 00000+0 55290-3 0 9997 2 66465 43.0008 58.2851 0001770 264.5083 322.6770 15.40705658 6000
UTC large
Height (km)
Speed (km/s)
/
Latitude / Longitude
Inclination (degrees)
Orbital Period (minutes)
Azimuth
Elevation
Range (km)
Doppler Factor

Next 0 passes for location: London (51.5072 / 0.1276)

Sorry there are no passes over London.